Falfurrias, TX

10:48 AM CDT on July 23, 2019 (GMT -0500)
Falfurrias

Weather History for KBKS - May, 2019

Change the Weather History Date:

Wednesday, May 22, 2019

  Actual Average (KNQI) Record (KNQI)
Temperature  
Mean Temperature 88 °F -  
Max Temperature 97 °F 87 °F 97 °F (2008)
Min Temperature 78 °F 69 °F 64 °F (2007)
Cooling Degree Days 22    
Growing Degree Days 38 (Base 50)    
Moisture  
Dew Point 74 °F    
Average Humidity 70    
Maximum Humidity 89    
Minimum Humidity 44    
Precipitation  
Precipitation 0.00 in - - ()
Sea Level Pressure  
Sea Level Pressure 29.71 in    
Wind  
Wind Speed 11 mph (SE)    
Max Wind Speed 20 mph    
Max Gust Speed 28 mph    
Visibility 7 miles    
Events      
Averages and records for this station are not official NWS values.
T = Trace of Precipitation, MM = Missing Value Source: NWS Daily Summary

Daily Weather History Graph

Daily Weather History Graph

Search for Another Location

Airport or City:

Astronomy

May. 22, 2019 Rise Set
Actual Time 6:41 AM CDT 8:17 PM CDT
Civil Twilight 6:15 AM CDT 8:43 PM CDT
Nautical Twilight 5:44 AM CDT 9:14 PM CDT
Astronomical Twilight 5:12 AM CDT 9:46 PM CDT
Moon No Moon Rise 9:53 AM CDT (5/22)
Length of Visible Light 14h 27m
Length of Day
13h 36m
Waning Gibbous, 85% of the Moon is Illuminated
May 22
Waning Gibbous
May 26
Last Quarter
Jun 3
New
Jun 10
First Quarter
Jun 17
Full

Hourly Weather History & Observations

Time (CDT) Temp. Heat Index Dew Point Humidity Pressure Visibility Wind Dir Wind Speed Gust Speed Precip Events Conditions
12:15 AM 80.8 °F 87.1 °F 76.3 °F 86% 29.69 in 5.0 mi SE 6.9 mph - N/A   Clear
12:35 AM 80.6 °F 86.8 °F 76.3 °F 87% 29.69 in 5.0 mi SE 5.8 mph - N/A   Scattered Clouds
12:55 AM 80.6 °F 86.8 °F 76.5 °F 87% 29.69 in 5.0 mi SE 6.9 mph - N/A   Mostly Cloudy
1:15 AM 80.8 °F 87.2 °F 76.5 °F 87% 29.69 in 5.0 mi SE 5.8 mph - N/A   Overcast
1:35 AM 81.0 °F 87.5 °F 76.3 °F 86% 29.68 in 4.0 mi SE 8.1 mph - N/A   Overcast
1:55 AM 81.0 °F 87.5 °F 76.3 °F 86% 29.68 in 5.0 mi SE 6.9 mph - N/A   Overcast
2:15 AM 81.0 °F 87.5 °F 76.3 °F 86% 29.67 in 4.0 mi SE 9.2 mph - N/A   Overcast
2:35 AM 80.8 °F 87.1 °F 76.1 °F 86% 29.66 in 4.0 mi SE 11.5 mph 17.3 mph N/A   Overcast
2:55 AM 80.6 °F 86.6 °F 76.1 °F 86% 29.66 in 4.0 mi SE 9.2 mph - N/A   Overcast
3:15 AM 80.1 °F 85.5 °F 76.1 °F 88% 29.66 in 3.0 mi SE 8.1 mph - N/A   Overcast
3:35 AM 79.7 °F - 76.1 °F 89% 29.66 in 3.0 mi SE 8.1 mph - N/A   Overcast
3:55 AM 80.1 °F 85.4 °F 75.7 °F 87% 29.66 in 4.0 mi SE 10.4 mph - N/A   Overcast
4:15 AM 80.1 °F 85.4 °F 75.7 °F 87% 29.66 in 4.0 mi SE 9.2 mph - N/A   Overcast
4:35 AM 80.1 °F 85.2 °F 75.4 °F 86% 29.66 in 4.0 mi SE 10.4 mph - N/A   Overcast
4:55 AM 79.7 °F - 75.2 °F 86% 29.65 in 4.0 mi SE 11.5 mph - N/A   Overcast
5:15 AM 79.3 °F - 75.0 °F 87% 29.65 in 3.0 mi SE 10.4 mph 16.1 mph N/A   Overcast
5:35 AM 78.8 °F - 74.8 °F 88% 29.65 in 3.0 mi SE 9.2 mph - N/A   Overcast
5:55 AM 79.0 °F - 74.7 °F 87% 29.66 in 4.0 mi SE 10.4 mph - N/A   Overcast
6:15 AM 79.2 °F - 74.5 °F 86% 29.66 in 4.0 mi SE 11.5 mph 16.1 mph N/A   Overcast
6:35 AM 79.0 °F - 74.5 °F 86% 29.67 in 4.0 mi SE 8.1 mph - N/A   Overcast
6:55 AM 78.4 °F - 74.3 °F 87% 29.67 in 4.0 mi SE 10.4 mph - N/A   Overcast
7:15 AM 78.8 °F - 74.3 °F 86% 29.68 in 4.0 mi SE 8.1 mph - N/A   Overcast
7:35 AM 79.2 °F - 74.3 °F 85% 29.68 in 4.0 mi SE 10.4 mph - N/A   Overcast
7:55 AM 79.9 °F - 74.3 °F 83% 29.69 in 2.5 mi SE 12.7 mph 20.7 mph N/A   Overcast
8:15 AM 81.0 °F 86.3 °F 74.3 °F 80% 29.70 in 4.0 mi SE 10.4 mph 19.6 mph N/A   Overcast
8:35 AM 81.5 °F 87.4 °F 74.3 °F 79% 29.71 in 4.0 mi SE 12.7 mph 20.7 mph N/A   Overcast
8:55 AM 82.4 °F 88.7 °F 74.3 °F 76% 29.71 in 4.0 mi SE 16.1 mph 21.9 mph N/A   Overcast
9:15 AM 82.9 °F 89.4 °F 73.9 °F 74% 29.72 in 5.0 mi SE 16.1 mph 19.6 mph N/A   Overcast
9:35 AM 84.2 °F 91.6 °F 74.1 °F 72% 29.73 in 5.0 mi SSE 17.3 mph - N/A   Overcast
9:55 AM 84.6 °F 91.7 °F 73.9 °F 70% 29.73 in 7.0 mi SE 13.8 mph 18.4 mph N/A   Overcast
10:15 AM 86.4 °F 93.8 °F 73.4 °F 65% 29.73 in 7.0 mi SE 15.0 mph 20.7 mph N/A   Mostly Cloudy
10:35 AM 87.1 °F 94.1 °F 72.9 °F 62% 29.73 in 7.0 mi SE 19.6 mph 24.2 mph N/A   Overcast
10:55 AM 88.3 °F 95.9 °F 72.7 °F 60% 29.73 in 7.0 mi SE 17.3 mph 26.5 mph N/A   Mostly Cloudy
11:15 AM 88.7 °F 96.2 °F 72.7 °F 59% 29.73 in 7.0 mi SSE 13.8 mph 20.7 mph N/A   Mostly Cloudy
11:35 AM 89.8 °F 97.5 °F 72.5 °F 57% 29.73 in 10.0 mi SE 17.3 mph 21.9 mph N/A   Mostly Cloudy
11:55 AM 91.0 °F 98.7 °F 72.3 °F 54% 29.73 in 10.0 mi SSE 16.1 mph - N/A   Mostly Cloudy
12:15 PM 92.5 °F 100.1 °F 72.0 °F 51% 29.72 in 7.0 mi SE 13.8 mph 21.9 mph N/A   Scattered Clouds
12:35 PM 93.2 °F 100.5 °F 71.2 °F 49% 29.72 in 10.0 mi SE 12.7 mph 20.7 mph N/A   Scattered Clouds
12:55 PM 94.5 °F 102.0 °F 71.2 °F 47% 29.72 in 10.0 mi South 16.1 mph 27.6 mph N/A   Scattered Clouds
1:15 PM 95.0 °F 101.9 °F 70.9 °F 45% 29.71 in 10.0 mi SSE 16.1 mph 27.6 mph N/A   Scattered Clouds
1:35 PM 94.8 °F 102.1 °F 71.2 °F 46% 29.71 in 10.0 mi SE 17.3 mph 24.2 mph N/A   Scattered Clouds
1:55 PM 95.2 °F 103.6 °F 72.1 °F 47% 29.70 in 10.0 mi SE 16.1 mph 20.7 mph N/A   Scattered Clouds
2:15 PM 95.4 °F 103.3 °F 71.8 °F 46% 29.70 in 10.0 mi SE 15.0 mph 26.5 mph N/A   Scattered Clouds
2:35 PM 96.3 °F 105.3 °F 72.3 °F 46% 29.70 in 10.0 mi SE 19.6 mph 25.3 mph N/A   Scattered Clouds
2:55 PM 97.7 °F 107.1 °F 72.3 °F 44% 29.69 in 10.0 mi SE 17.3 mph 27.6 mph N/A   Scattered Clouds
3:15 PM 94.5 °F 105.3 °F 74.1 °F 52% 29.69 in 10.0 mi SE 16.1 mph 21.9 mph N/A   Mostly Cloudy
3:35 PM 95.9 °F 107.4 °F 74.5 °F 50% 29.69 in 10.0 mi ESE 12.7 mph 16.1 mph N/A   Scattered Clouds
3:55 PM 96.1 °F 107.8 °F 74.5 °F 50% 29.69 in 10.0 mi SE 17.3 mph 21.9 mph N/A   Scattered Clouds
4:15 PM 95.5 °F 107.3 °F 74.7 °F 51% 29.68 in 10.0 mi ESE 15.0 mph 21.9 mph N/A   Mostly Cloudy
4:35 PM 95.5 °F 106.5 °F 74.3 °F 50% 29.68 in 10.0 mi SE 16.1 mph 23.0 mph N/A   Mostly Cloudy
4:55 PM 94.5 °F 106.8 °F 75.4 °F 54% 29.68 in 10.0 mi SE 12.7 mph 21.9 mph N/A   Mostly Cloudy
5:15 PM 94.8 °F 106.9 °F 75.0 °F 53% 29.68 in 7.0 mi ESE 13.8 mph 21.9 mph N/A   Scattered Clouds
5:35 PM 95.0 °F 105.2 °F 73.8 °F 50% 29.68 in 10.0 mi ESE 18.4 mph 26.5 mph N/A   Scattered Clouds
5:55 PM 93.2 °F 101.7 °F 72.9 °F 51% 29.69 in 10.0 mi ESE 15.0 mph 23.0 mph N/A   Scattered Clouds
6:15 PM 93.0 °F 101.3 °F 72.5 °F 51% 29.69 in 10.0 mi SE 12.7 mph 20.7 mph N/A   Scattered Clouds
6:35 PM 91.9 °F 104.5 °F 76.5 °F 60% 29.69 in 10.0 mi ESE 18.4 mph 24.2 mph N/A   Mostly Cloudy
6:55 PM 90.1 °F 102.4 °F 76.5 °F 64% 29.69 in 7.0 mi ESE 17.3 mph 23.0 mph N/A   Mostly Cloudy
7:15 PM 88.7 °F 100.4 °F 76.3 °F 67% 29.69 in 7.0 mi ESE 18.4 mph 24.2 mph N/A   Scattered Clouds
7:35 PM 87.8 °F 98.6 °F 76.1 °F 68% 29.70 in 7.0 mi ESE 13.8 mph 20.7 mph N/A   Scattered Clouds
7:55 PM 86.9 °F 97.3 °F 76.1 °F 70% 29.72 in 7.0 mi ESE 10.4 mph 19.6 mph N/A   Scattered Clouds
8:15 PM 86.2 °F 96.4 °F 76.1 °F 72% 29.72 in 7.0 mi ESE 10.4 mph - N/A   Mostly Cloudy
8:35 PM 85.6 °F 95.0 °F 75.7 °F 72% 29.74 in 7.0 mi ESE 9.2 mph 16.1 mph N/A   Mostly Cloudy
8:55 PM 85.5 °F 94.6 °F 75.4 °F 72% 29.75 in 7.0 mi ESE 12.7 mph 19.6 mph N/A   Overcast
9:15 PM 85.1 °F 93.7 °F 75.2 °F 72% 29.76 in 7.0 mi SE 10.4 mph 17.3 mph N/A   Overcast
9:35 PM 84.6 °F 92.8 °F 75.2 °F 73% 29.77 in 7.0 mi ESE 10.4 mph 17.3 mph N/A   Overcast
9:55 PM 84.6 °F 92.4 °F 74.8 °F 72% 29.78 in 7.0 mi SE 11.5 mph - N/A   Overcast
10:15 PM 84.6 °F 92.1 °F 74.3 °F 71% 29.79 in 7.0 mi SE 11.5 mph 20.7 mph N/A   Overcast
10:35 PM 84.2 °F 91.6 °F 74.3 °F 72% 29.80 in 7.0 mi SE 12.7 mph 20.7 mph N/A   Overcast
10:55 PM 83.8 °F 91.4 °F 74.7 °F 74% 29.80 in 7.0 mi ESE 11.5 mph - N/A   Overcast
11:15 PM 83.5 °F 90.6 °F 74.5 °F 74% 29.81 in 7.0 mi SE 13.8 mph 19.6 mph N/A   Mostly Cloudy
11:35 PM 83.3 °F 89.9 °F 73.9 °F 73% 29.82 in 7.0 mi SE 10.4 mph 19.6 mph N/A   Mostly Cloudy
11:55 PM 82.9 °F 89.4 °F 73.9 °F 74% 29.82 in 7.0 mi SE 9.2 mph - N/A   Mostly Cloudy